Location: Cantaing
(50.1487°N, 3.1675°E)
Time: 05:31:28
(UTC+00:00)

Timation 2 Rocket - Pass Details

Date: 14 January 2026
Orbit: 906 x 1072 km, 70.0° (Epoch: 10 February)

Event Time Altitude Azimuth Distance (km) Brightness Sun altitude
Rises 06:17:42 0° 213° (SSW) 3,787 6.9 -12.9°
Reaches altitude 10° 06:20:20 10° 215° (SW) 2,817 6.2 -12.5°
Maximum altitude 06:26:56 78° 302° (WNW) 1,023 4.0 -11.5°
Drops below altitude 10° 06:33:17 10° 29° (NNE) 2,715 6.5 -10.5°
Sets 06:35:48 0° 31° (NNE) 3,642 7.1 -10.2°
